Time,TemperatureF,DewpointF,PressureIn,WindDirection,WindDirectionDegrees,WindSpeedMPH,WindSpeedGustMPH,Humidity,HourlyPrecipIn,Conditions,Clouds,dailyrainin,SoftwareType,DateUTC
2014-01-05 00:05:00,43.0,36.0,29.99,SSE,149,3.0,8.0,76,0.00,,,0.00,weatherlink.com 1.10,2014-01-05 06:05:00,
2014-01-05 00:20:00,43.1,37.0,29.97,SE,141,2.0,13.0,78,0.00,,,0.00,weatherlink.com 1.10,2014-01-05 06:20:00,
2014-01-05 00:35:00,43.2,37.0,29.96,SSE,148,6.0,12.0,79,0.00,,,0.00,weatherlink.com 1.10,2014-01-05 06:35:00,
2014-01-05 00:50:00,43.3,38.0,29.94,SE,139,2.0,15.0,80,0.00,,,0.00,weatherlink.com 1.10,2014-01-05 06:50:00,
2014-01-05 01:05:00,43.3,38.0,29.93,SSE,166,9.0,15.0,80,0.00,,,0.00,weatherlink.com 1.10,2014-01-05 07:05:00,
2014-01-05 01:20:00,43.5,38.0,29.93,SE,134,6.0,16.0,80,0.00,,,0.00,weatherlink.com 1.10,2014-01-05 07:20:00,
2014-01-05 01:35:00,43.6,38.0,29.93,SE,129,0.0,13.0,80,0.00,,,0.00,weatherlink.com 1.10,2014-01-05 07:35:00,
2014-01-05 01:50:00,43.5,37.0,29.93,South,171,3.0,12.0,79,0.00,,,0.00,weatherlink.com 1.10,2014-01-05 07:50:00,
2014-01-05 02:05:00,43.3,37.0,29.93,SE,133,5.0,16.0,79,0.00,,,0.00,weatherlink.com 1.10,2014-01-05 08:05:00,
2014-01-05 02:20:00,43.4,37.0,29.92,SE,128,2.0,10.0,79,0.00,,,0.00,weatherlink.com 1.10,2014-01-05 08:20:00,
2014-01-05 02:35:00,43.7,37.0,29.92,SSE,155,2.0,12.0,78,0.00,,,0.00,weatherlink.com 1.10,2014-01-05 08:35:00,
2014-01-05 02:50:00,43.4,37.0,29.91,SE,134,3.0,10.0,78,0.00,,,0.00,weatherlink.com 1.10,2014-01-05 08:50:00,
2014-01-05 03:05:00,43.4,37.0,29.91,SSW,204,2.0,9.0,78,0.00,,,0.00,weatherlink.com 1.10,2014-01-05 09:05:00,
2014-01-05 03:20:00,43.2,37.0,29.90,SE,128,0.0,6.0,78,0.00,,,0.00,weatherlink.com 1.10,2014-01-05 09:20:00,
2014-01-05 03:35:00,42.8,37.0,29.89,SE,144,0.0,6.0,79,0.00,,,0.00,weatherlink.com 1.10,2014-01-05 09:35:00,
2014-01-05 03:50:00,42.7,37.0,29.88,ESE,119,1.0,6.0,79,0.00,,,0.00,weatherlink.com 1.10,2014-01-05 09:50:00,
2014-01-05 04:05:00,42.7,37.0,29.87,SE,146,2.0,6.0,79,0.00,,,0.00,weatherlink.com 1.10,2014-01-05 10:05:00,
2014-01-05 04:20:00,42.8,37.0,29.86,SSE,149,5.0,13.0,79,0.00,,,0.00,weatherlink.com 1.10,2014-01-05 10:20:00,
2014-01-05 04:35:00,42.9,36.0,29.86,SSE,147,9.0,11.0,78,0.00,,,0.00,weatherlink.com 1.10,2014-01-05 10:35:00,
2014-01-05 04:50:00,42.8,36.0,29.85,SSE,166,5.0,11.0,78,0.00,,,0.00,weatherlink.com 1.10,2014-01-05 10:50:00,
2014-01-05 05:05:00,42.9,36.0,29.85,SSE,149,8.0,12.0,78,0.00,,,0.00,weatherlink.com 1.10,2014-01-05 11:05:00,
2014-01-05 05:20:00,43.0,37.0,29.84,SSE,151,3.0,12.0,78,0.00,,,0.00,weatherlink.com 1.10,2014-01-05 11:20:00,
2014-01-05 05:35:00,43.1,37.0,29.83,SE,142,3.0,14.0,78,0.00,,,0.00,weatherlink.com 1.10,2014-01-05 11:35:00,
2014-01-05 05:51:00,43.0,37.0,29.82,SE,132,2.0,11.0,79,0.00,,,0.00,weatherlink.com 1.10,2014-01-05 11:51:00,
2014-01-05 06:06:00,43.0,37.0,29.82,SE,125,2.0,19.0,79,0.00,,,0.00,weatherlink.com 1.10,2014-01-05 12:06:00,
2014-01-05 06:21:00,42.6,37.0,29.82,SSW,195,9.0,9.0,79,0.00,,,0.00,weatherlink.com 1.10,2014-01-05 12:21:00,
2014-01-05 06:36:00,42.4,37.0,29.82,SE,129,2.0,12.0,81,0.00,,,0.00,weatherlink.com 1.10,2014-01-05 12:36:00,
2014-01-05 06:51:00,42.6,38.0,29.81,ESE,122,6.0,14.0,82,0.00,,,0.00,weatherlink.com 1.10,2014-01-05 12:51:00,
2014-01-05 07:06:00,43.3,38.0,29.80,SE,135,6.0,11.0,82,0.00,,,0.00,weatherlink.com 1.10,2014-01-05 13:06:00,
2014-01-05 07:21:00,43.5,38.0,29.80,South,182,10.0,13.0,81,0.00,,,0.00,weatherlink.com 1.10,2014-01-05 13:21:00,
2014-01-05 07:36:00,43.8,38.0,29.79,SE,126,3.0,12.0,81,0.00,,,0.00,weatherlink.com 1.10,2014-01-05 13:36:00,
2014-01-05 07:51:00,44.1,39.0,29.78,SE,142,3.0,12.0,82,0.00,,,0.00,weatherlink.com 1.10,2014-01-05 13:51:00,
2014-01-05 08:06:00,44.3,39.0,29.77,SE,130,4.0,10.0,82,0.00,,,0.00,weatherlink.com 1.10,2014-01-05 14:06:00,
2014-01-05 08:21:00,44.5,40.0,29.77,SSE,161,4.0,9.0,83,0.00,,,0.00,weatherlink.com 1.10,2014-01-05 14:21:00,
2014-01-05 08:36:00,44.7,40.0,29.75,ESE,111,5.0,16.0,83,0.00,,,0.00,weatherlink.com 1.10,2014-01-05 14:36:00,
2014-01-05 08:51:00,44.9,40.0,29.74,SE,134,6.0,13.0,83,0.00,,,0.00,weatherlink.com 1.10,2014-01-05 14:51:00,
2014-01-05 09:06:00,45.1,41.0,29.73,SE,138,6.0,17.0,84,0.00,,,0.00,weatherlink.com 1.10,2014-01-05 15:06:00,
2014-01-05 09:21:00,45.0,41.0,29.73,ESE,123,3.0,14.0,87,0.01,,,0.01,weatherlink.com 1.10,2014-01-05 15:21:00,
2014-01-05 09:36:00,44.3,42.0,29.71,SE,134,5.0,18.0,91,0.01,,,0.01,weatherlink.com 1.10,2014-01-05 15:36:00,
2014-01-05 09:51:00,44.3,42.0,29.70,ESE,120,2.0,13.0,92,0.02,,,0.02,weatherlink.com 1.10,2014-01-05 15:51:00,
2014-01-05 10:06:00,44.5,42.0,29.68,ESE,119,7.0,12.0,92,0.03,,,0.03,weatherlink.com 1.10,2014-01-05 16:06:00,
2014-01-05 10:21:00,45.1,43.0,29.67,SSE,150,5.0,12.0,92,0.02,,,0.03,weatherlink.com 1.10,2014-01-05 16:21:00,
2014-01-05 10:36:00,45.8,44.0,29.66,SE,138,4.0,17.0,92,0.02,,,0.03,weatherlink.com 1.10,2014-01-05 16:36:00,
2014-01-05 10:51:00,45.2,43.0,29.71,WSW,253,4.0,18.0,92,0.13,,,0.15,weatherlink.com 1.10,2014-01-05 16:51:00,
2014-01-05 11:06:00,44.3,43.0,29.69,WSW,240,0.0,8.0,94,0.25,,,0.28,weatherlink.com 1.10,2014-01-05 17:06:00,
2014-01-05 11:21:00,44.0,43.0,29.69,SW,230,1.0,6.0,95,0.29,,,0.32,weatherlink.com 1.10,2014-01-05 17:21:00,
2014-01-05 11:37:00,44.2,43.0,29.68,WSW,242,1.0,4.0,96,0.32,,,0.35,weatherlink.com 1.10,2014-01-05 17:37:00,
2014-01-05 11:51:00,44.1,43.0,29.66,SW,232,2.0,3.0,96,0.22,,,0.37,weatherlink.com 1.10,2014-01-05 17:51:00,
2014-01-05 12:06:00,44.1,43.0,29.66,SSW,208,2.0,5.0,96,0.10,,,0.38,weatherlink.com 1.10,2014-01-05 18:06:00,
2014-01-05 12:21:00,44.1,43.0,29.64,SW,220,0.0,4.0,96,0.07,,,0.39,weatherlink.com 1.10,2014-01-05 18:21:00,
2014-01-05 12:37:00,44.2,43.0,29.63,SSW,202,0.0,3.0,96,0.04,,,0.39,weatherlink.com 1.10,2014-01-05 18:37:00,
2014-01-05 12:52:00,44.4,43.0,29.62,SSW,195,0.0,4.0,96,0.03,,,0.40,weatherlink.com 1.10,2014-01-05 18:52:00,
2014-01-05 13:07:00,44.5,44.0,29.63,SW,219,5.0,9.0,96,0.03,,,0.41,weatherlink.com 1.10,2014-01-05 19:07:00,
2014-01-05 13:22:00,44.7,44.0,29.62,SW,225,4.0,9.0,96,0.04,,,0.43,weatherlink.com 1.10,2014-01-05 19:22:00,
2014-01-05 13:37:00,38.9,36.0,29.66,West,267,7.0,14.0,89,0.05,,,0.44,weatherlink.com 1.10,2014-01-05 19:37:00,
2014-01-05 13:52:00,34.9,33.0,29.67,West,274,6.0,15.0,92,0.05,,,0.45,weatherlink.com 1.10,2014-01-05 19:52:00,
2014-01-05 14:07:00,32.8,31.0,29.67,West,274,6.0,15.0,93,0.05,,,0.46,weatherlink.com 1.10,2014-01-05 20:07:00,
2014-01-05 14:22:00,32.0,30.0,29.70,West,280,6.0,14.0,93,0.03,,,0.46,weatherlink.com 1.10,2014-01-05 20:22:00,
2014-01-05 14:37:00,31.0,29.0,29.72,West,279,8.0,15.0,93,0.02,,,0.46,weatherlink.com 1.10,2014-01-05 20:37:00,
2014-01-05 14:52:00,30.0,28.0,29.74,West,269,6.0,17.0,93,0.01,,,0.46,weatherlink.com 1.10,2014-01-05 20:52:00,
2014-01-05 15:07:00,28.6,27.0,29.77,West,262,10.0,16.0,92,0.00,,,0.46,weatherlink.com 1.10,2014-01-05 21:07:00,
2014-01-05 15:22:00,26.9,25.0,29.77,West,278,7.0,15.0,91,0.00,,,0.46,weatherlink.com 1.10,2014-01-05 21:22:00,
2014-01-05 15:37:00,25.9,24.0,29.79,WNW,302,4.0,17.0,91,0.00,,,0.46,weatherlink.com 1.10,2014-01-05 21:37:00,
2014-01-05 15:52:00,25.1,23.0,29.80,WNW,297,3.0,14.0,91,0.00,,,0.46,weatherlink.com 1.10,2014-01-05 21:52:00,
2014-01-05 16:07:00,24.9,23.0,29.82,WNW,292,5.0,13.0,92,0.00,,,0.46,weatherlink.com 1.10,2014-01-05 22:07:00,
2014-01-05 16:22:00,24.3,22.0,29.84,WSW,244,5.0,19.0,89,0.00,,,0.46,weatherlink.com 1.10,2014-01-05 22:22:00,
2014-01-05 16:37:00,23.8,22.0,29.85,West,265,4.0,14.0,91,0.00,,,0.46,weatherlink.com 1.10,2014-01-05 22:37:00,
2014-01-05 16:52:00,23.3,21.0,29.88,WNW,286,3.0,19.0,90,0.00,,,0.46,weatherlink.com 1.10,2014-01-05 22:52:00,
2014-01-05 17:07:00,23.2,21.0,29.90,West,280,6.0,11.0,90,0.00,,,0.46,weatherlink.com 1.10,2014-01-05 23:07:00,
2014-01-05 17:22:00,22.5,20.0,29.93,WNW,290,9.0,16.0,89,0.00,,,0.46,weatherlink.com 1.10,2014-01-05 23:22:00,
2014-01-05 17:38:00,22.0,19.0,29.94,NW,305,5.0,15.0,89,0.00,,,0.46,weatherlink.com 1.10,2014-01-05 23:38:00,
2014-01-05 17:53:00,21.5,18.0,29.96,WNW,282,7.0,19.0,87,0.00,,,0.46,weatherlink.com 1.10,2014-01-05 23:53:00,
2014-01-05 18:08:00,21.2,18.0,29.96,NW,304,11.0,15.0,88,0.00,,,0.46,weatherlink.com 1.10,2014-01-06 00:08:00,
2014-01-05 18:23:00,20.7,17.0,29.98,West,267,3.0,21.0,87,0.00,,,0.46,weatherlink.com 1.10,2014-01-06 00:23:00,
2014-01-05 18:38:00,20.4,17.0,30.00,West,274,9.0,19.0,87,0.00,,,0.46,weatherlink.com 1.10,2014-01-06 00:38:00,
2014-01-05 18:55:00,19.8,16.0,30.02,NW,309,2.0,19.0,86,0.00,,,0.46,weatherlink.com 1.10,2014-01-06 00:55:00,
2014-01-05 19:10:00,19.7,16.0,30.04,WNW,284,6.0,18.0,86,0.00,,,0.46,weatherlink.com 1.10,2014-01-06 01:10:00,
2014-01-05 19:25:00,19.5,16.0,30.05,NW,307,9.0,16.0,87,0.00,,,0.46,weatherlink.com 1.10,2014-01-06 01:25:00,
2014-01-05 19:40:00,19.2,16.0,30.07,WNW,296,7.0,17.0,87,0.00,,,0.46,weatherlink.com 1.10,2014-01-06 01:40:00,
2014-01-05 19:55:00,19.1,16.0,30.08,WNW,300,8.0,12.0,89,0.00,,,0.46,weatherlink.com 1.10,2014-01-06 01:55:00,
2014-01-05 20:10:00,18.8,15.0,30.11,NW,317,9.0,16.0,86,0.00,,,0.46,weatherlink.com 1.10,2014-01-06 02:10:00,
2014-01-05 20:27:00,18.6,16.0,30.12,West,279,4.0,12.0,88,0.00,,,0.46,weatherlink.com 1.10,2014-01-06 02:27:00,
2014-01-05 20:41:00,17.7,14.0,30.13,NNW,332,9.0,18.0,85,0.00,,,0.46,weatherlink.com 1.10,2014-01-06 02:41:00,
2014-01-05 20:56:00,17.0,13.0,30.14,WNW,287,3.0,17.0,85,0.00,,,0.46,weatherlink.com 1.10,2014-01-06 02:56:00,
2014-01-05 21:11:00,17.3,14.0,30.16,NW,311,5.0,15.0,87,0.00,,,0.46,weatherlink.com 1.10,2014-01-06 03:11:00,
2014-01-05 21:28:00,16.6,13.0,30.17,West,260,4.0,18.0,85,0.00,,,0.46,weatherlink.com 1.10,2014-01-06 03:28:00,
2014-01-05 21:44:00,16.2,13.0,30.18,WNW,284,3.0,11.0,86,0.00,,,0.46,weatherlink.com 1.10,2014-01-06 03:44:00,
2014-01-05 21:58:00,15.4,11.0,30.20,NNW,332,6.0,17.0,82,0.00,,,0.46,weatherlink.com 1.10,2014-01-06 03:58:00,
2014-01-05 22:13:00,14.7,10.0,30.20,West,281,10.0,19.0,82,0.00,,,0.46,weatherlink.com 1.10,2014-01-06 04:13:00,
2014-01-05 22:29:00,14.3,10.0,30.22,WNW,301,2.0,20.0,81,0.00,,,0.46,weatherlink.com 1.10,2014-01-06 04:29:00,
2014-01-05 22:45:00,13.4,8.0,30.22,NNW,328,5.0,15.0,78,0.00,,,0.46,weatherlink.com 1.10,2014-01-06 04:45:00,
2014-01-05 23:00:00,12.9,7.0,30.23,NW,313,5.0,16.0,77,0.00,,,0.46,weatherlink.com 1.10,2014-01-06 05:00:00,
2014-01-05 23:14:00,12.5,6.0,30.23,WNW,291,3.0,15.0,74,0.00,,,0.46,weatherlink.com 1.10,2014-01-06 05:14:00,
2014-01-05 23:29:00,12.2,6.0,30.24,North,11,5.0,17.0,75,0.00,,,0.46,weatherlink.com 1.10,2014-01-06 05:29:00,
2014-01-05 23:44:00,11.9,5.0,30.25,NW,306,4.0,15.0,74,0.00,,,0.46,weatherlink.com 1.10,2014-01-06 05:44:00,
2014-01-05 23:59:00,11.2,3.0,30.26,NNW,336,4.0,18.0,69,0.00,,,0.46,weatherlink.com 1.10,2014-01-06 05:59:00,